timestamp,surface_pressure_avg,surface_temp_avg,battery_voltage,lat,long
2021-08-31 00:09:01+00:00,237.2531,7.0,12.89,47.84626,-54.09684
2021-08-31 00:19:01+00:00,240.7715,7.02,12.73,47.84626,-54.09684
2021-08-31 00:29:01+00:00,241.2613,7.09,12.73,47.84626,-54.09684
2021-08-31 00:39:01+00:00,241.4198,7.1,12.73,47.84626,-54.09684
2021-08-31 00:49:01+00:00,244.1097,7.1,12.73,47.84626,-54.09684
2021-08-31 00:59:01+00:00,245.878,7.13,12.73,47.84626,-54.09684
2021-08-31 01:09:01+00:00,244.995,7.14,12.73,47.84626,-54.09684
2021-08-31 01:19:00+00:00,246.9648,7.1,12.73,47.84626,-54.09684
2021-08-31 01:29:00+00:00,248.6063,7.1,12.73,47.84626,-54.09684
2021-08-31 01:39:00+00:00,247.1648,7.06,12.73,47.84626,-54.09684
2021-08-31 01:49:00+00:00,248.4364,7.1,12.73,47.84626,-54.09684
2021-08-31 01:59:00+00:00,252.5065,7.1,12.73,47.84626,-54.09684
2021-08-31 02:09:00+00:00,251.453,7.14,12.73,47.84626,-54.09684
2021-08-31 02:19:01+00:00,250.8597,7.52,12.73,47.84626,-54.09684
2021-08-31 02:29:01+00:00,256.0247,7.96,12.73,47.84626,-54.09684
2021-08-31 02:39:01+00:00,259.9766,8.34,12.73,47.84626,-54.09684
2021-08-31 02:49:01+00:00,260.6846,8.59,12.73,47.84626,-54.09684
2021-08-31 02:59:01+00:00,266.2714,8.77,12.73,47.84626,-54.09684
2021-08-31 03:09:01+00:00,273.3914,8.9,12.73,47.84626,-54.09684
2021-08-31 03:19:00+00:00,275.1279,9.15,12.73,47.84626,-54.09684
2021-08-31 03:29:00+00:00,276.5114,9.45,12.73,47.84626,-54.09684
2021-08-31 03:39:00+00:00,283.358,8.5,12.73,47.84626,-54.09684
2021-08-31 03:49:00+00:00,288.9247,9.05,12.73,47.84626,-54.09684
2021-08-31 03:59:00+00:00,289.1597,10.04,12.73,47.84626,-54.09684
2021-08-31 04:09:00+00:00,290.8947,10.49,12.73,47.84626,-54.09684
2021-08-31 04:19:00+00:00,295.64799999999997,10.5,12.73,47.84626,-54.09684
2021-08-31 04:29:00+00:00,297.9263,10.68,12.73,47.84626,-54.09684
2021-08-31 04:39:00+00:00,297.1379,10.7,12.73,47.84626,-54.09684
2021-08-31 04:49:00+00:00,298.5681,10.2,12.73,47.84626,-54.09684
2021-08-31 04:59:00+00:00,300.5614,10.31,12.73,47.84626,-54.09684
2021-08-31 05:09:00+00:00,299.133,10.81,12.73,47.84626,-54.09684
2021-08-31 05:19:00+00:00,299.668,10.88,12.65,47.84626,-54.09684
2021-08-31 05:29:00+00:00,302.1363,11.12,12.65,47.84626,-54.09684
2021-08-31 05:39:00+00:00,302.7063,11.74,12.65,47.84626,-54.09684
2021-08-31 05:49:00+00:00,301.1614,11.6,12.65,47.84626,-54.09684
2021-08-31 05:59:00+00:00,302.6262,11.71,12.65,47.84626,-54.09684
2021-08-31 06:09:00+00:00,302.9965,12.17,12.65,47.84626,-54.09684
2021-08-31 06:19:00+00:00,301.9064,12.37,12.65,47.84626,-54.09684
2021-08-31 06:29:00+00:00,300.7963,12.64,12.65,47.84626,-54.09684
2021-08-31 06:39:00+00:00,301.0696,12.84,12.65,47.84626,-54.09684
2021-08-31 06:49:00+00:00,299.5513,13.03,12.65,47.84626,-54.09684
2021-08-31 06:59:00+00:00,297.8047,13.18,12.65,47.84626,-54.09684
2021-08-31 07:09:00+00:00,297.9964,13.24,12.65,47.84626,-54.09684
2021-08-31 07:19:01+00:00,295.1497,13.38,12.65,47.84626,-54.09684
2021-08-31 07:29:01+00:00,289.0897,13.56,12.65,47.84626,-54.09684
2021-08-31 07:39:01+00:00,286.5731,13.65,12.65,47.84626,-54.09684
2021-08-31 07:49:01+00:00,286.6898,13.72,12.65,47.84626,-54.09684
2021-08-31 07:59:01+00:00,283.8963,13.84,12.65,47.84626,-54.09684
2021-08-31 08:09:01+00:00,277.1614,13.76,12.65,47.84626,-54.09684
2021-08-31 08:19:00+00:00,270.9114,13.5,12.65,47.84626,-54.09684
2021-08-31 08:29:00+00:00,266.0131,13.6,12.65,47.84626,-54.09684
2021-08-31 08:39:00+00:00,262.8665,13.6,12.65,47.84626,-54.09684
2021-08-31 08:49:00+00:00,259.4914,13.74,12.65,47.84626,-54.09684
2021-08-31 08:59:00+00:00,254.8064,13.93,12.65,47.84626,-54.09684
2021-08-31 09:09:00+00:00,249.8947,14.2,12.65,47.84626,-54.09684
2021-08-31 09:19:00+00:00,247.4264,14.36,12.65,47.84626,-54.09684
2021-08-31 09:29:00+00:00,245.7597,14.51,12.65,47.84626,-54.09684
2021-08-31 09:39:00+00:00,242.5597,14.8,12.65,47.84626,-54.09684
2021-08-31 09:49:00+00:00,238.3864,15.05,12.65,47.84626,-54.09684
2021-08-31 09:59:00+00:00,236.318,15.1,12.65,47.84626,-54.09684
2021-08-31 10:09:00+00:00,235.6131,15.09,12.65,47.84626,-54.09684
2021-08-31 10:19:01+00:00,234.1881,15.0,12.65,47.84626,-54.09684
2021-08-31 10:29:01+00:00,231.4598,15.0,12.65,47.84626,-54.09684
2021-08-31 10:39:01+00:00,232.3165,15.0,12.65,47.84626,-54.09684
2021-08-31 10:49:01+00:00,233.678,15.0,12.65,47.84626,-54.09684
2021-08-31 10:59:01+00:00,232.5449,14.9,12.65,47.84626,-54.09684
2021-08-31 11:09:01+00:00,233.0515,14.87,12.65,47.84626,-54.09684
2021-08-31 11:19:01+00:00,234.7013,14.8,12.73,47.84626,-54.09684
2021-08-31 11:29:01+00:00,234.5315,14.8,12.73,47.84626,-54.09684
2021-08-31 11:39:01+00:00,236.4431,14.8,12.73,47.84626,-54.09684
2021-08-31 11:49:01+00:00,242.3014,14.8,12.73,47.84626,-54.09684
2021-08-31 11:59:01+00:00,248.7848,14.8,12.73,47.84626,-54.09684
2021-08-31 12:09:01+00:00,251.2096,14.8,12.73,47.84626,-54.09684
2021-08-31 12:19:01+00:00,252.1996,14.84,12.73,47.84626,-54.09684
2021-08-31 12:29:01+00:00,253.4048,14.88,12.73,47.84626,-54.09684
2021-08-31 12:39:01+00:00,253.793,14.87,12.73,47.84626,-54.09684
2021-08-31 12:49:01+00:00,252.7713,14.89,12.73,47.84626,-54.09684
2021-08-31 12:59:01+00:00,254.8631,14.88,12.73,47.84626,-54.09684
2021-08-31 13:09:01+00:00,256.0232,14.89,12.73,47.84626,-54.09684
2021-08-31 13:19:01+00:00,254.6797,14.89,13.05,47.84626,-54.09684
2021-08-31 13:29:01+00:00,255.3864,14.8,13.05,47.84626,-54.09684
2021-08-31 13:39:01+00:00,260.2747,14.8,13.05,47.84626,-54.09684
2021-08-31 13:49:01+00:00,261.1398,14.81,13.05,47.84626,-54.09684
2021-08-31 13:59:01+00:00,258.4364,14.89,13.05,47.84626,-54.09684
2021-08-31 14:09:01+00:00,260.1014,14.9,13.05,47.84626,-54.09684
2021-08-31 14:19:01+00:00,263.3998,14.9,13.21,47.84626,-54.09684
2021-08-31 14:29:01+00:00,261.6097,14.97,13.21,47.84626,-54.09684
2021-08-31 14:39:01+00:00,259.3831,14.99,13.21,47.84626,-54.09684
2021-08-31 14:49:01+00:00,262.688,14.96,13.21,47.84626,-54.09684
2021-08-31 14:59:01+00:00,270.3147,14.9,13.21,47.84626,-54.09684
2021-08-31 15:09:01+00:00,274.6864,14.9,13.21,47.84626,-54.09684
2021-08-31 15:19:01+00:00,277.0181,14.8,13.29,47.84626,-54.09684
2021-08-31 15:29:01+00:00,281.9631,14.8,13.29,47.84626,-54.09684
2021-08-31 15:39:01+00:00,289.3663,14.85,13.29,47.84626,-54.09684
2021-08-31 15:49:01+00:00,292.9814,14.89,13.29,47.84626,-54.09684
2021-08-31 15:59:01+00:00,294.9347,14.9,13.29,47.84626,-54.09684
2021-08-31 16:09:01+00:00,299.0281,14.89,13.29,47.84626,-54.09684
2021-08-31 16:19:01+00:00,304.7514,14.9,13.37,47.84626,-54.09684
2021-08-31 16:29:01+00:00,305.4214,14.9,13.37,47.84626,-54.09684
2021-08-31 16:39:01+00:00,307.7147,14.9,13.37,47.84626,-54.09684
2021-08-31 16:49:01+00:00,311.7814,14.92,13.37,47.84626,-54.09684
2021-08-31 16:59:01+00:00,316.2764,14.95,13.37,47.84626,-54.09684
2021-08-31 17:09:01+00:00,317.078,14.97,13.37,47.84626,-54.09684
2021-08-31 17:19:01+00:00,318.373,14.99,13.29,47.84626,-54.09684
2021-08-31 17:29:01+00:00,319.7481,15.0,13.29,47.84626,-54.09684
2021-08-31 17:39:01+00:00,321.3979,15.0,13.29,47.84626,-54.09684
2021-08-31 17:49:01+00:00,322.7396,15.0,13.29,47.84626,-54.09684
2021-08-31 17:59:01+00:00,324.5446,15.03,13.29,47.84626,-54.09684
2021-08-31 18:09:01+00:00,325.4079,15.05,13.29,47.84626,-54.09684
2021-08-31 18:19:01+00:00,327.4165,15.06,13.37,47.84626,-54.09684
2021-08-31 18:29:01+00:00,326.6579,15.08,13.37,47.84626,-54.09684
2021-08-31 18:39:01+00:00,323.5414,15.08,13.37,47.84626,-54.09684
2021-08-31 18:49:01+00:00,320.8029,15.08,13.37,47.84626,-54.09684
2021-08-31 18:59:01+00:00,322.593,15.09,13.37,47.84626,-54.09684
2021-08-31 19:09:01+00:00,323.0596,15.08,13.37,47.84626,-54.09684
2021-08-31 19:19:01+00:00,319.0563,15.09,13.44,47.84626,-54.09684
2021-08-31 19:29:01+00:00,315.0264,15.09,13.44,47.84626,-54.09684
2021-08-31 19:39:01+00:00,313.713,15.1,13.44,47.84626,-54.09684
2021-08-31 19:49:01+00:00,312.3064,15.1,13.44,47.84626,-54.09684
2021-08-31 19:59:01+00:00,309.928,15.1,13.44,47.84626,-54.09684
2021-08-31 20:09:01+00:00,310.0963,15.1,13.44,47.84626,-54.09684
2021-08-31 20:19:01+00:00,312.5229,15.1,13.37,47.84626,-54.09684
2021-08-31 20:29:01+00:00,308.4863,15.1,13.37,47.84626,-54.09684
2021-08-31 20:39:01+00:00,300.0613,15.1,13.37,47.84626,-54.09684
2021-08-31 20:49:01+00:00,296.2063,15.1,13.37,47.84626,-54.09684
2021-08-31 20:59:01+00:00,293.2614,15.11,13.37,47.84626,-54.09684
2021-08-31 21:09:01+00:00,287.9597,15.13,13.37,47.84626,-54.09684
2021-08-31 21:19:01+00:00,281.5331,15.13,13.21,47.84626,-54.09684
2021-08-31 21:29:01+00:00,278.6147,15.1,13.21,47.84626,-54.09684
2021-08-31 21:39:01+00:00,274.0297,15.1,13.21,47.84626,-54.09684
2021-08-31 21:49:01+00:00,267.9181,15.13,13.21,47.84626,-54.09684
2021-08-31 21:59:01+00:00,265.2131,15.16,13.21,47.84626,-54.09684
2021-08-31 22:09:01+00:00,263.2614,15.17,13.21,47.84626,-54.09684
2021-08-31 22:19:01+00:00,258.5747,15.17,12.89,47.84626,-54.09684
2021-08-31 22:29:01+00:00,254.0898,15.17,12.89,47.84626,-54.09684
2021-08-31 22:39:01+00:00,252.3564,15.19,12.89,47.84626,-54.09684
2021-08-31 22:49:01+00:00,249.5981,15.19,12.89,47.84626,-54.09684
2021-08-31 22:59:01+00:00,246.3781,15.2,12.89,47.84626,-54.09684
2021-08-31 23:09:01+00:00,245.0548,15.2,12.89,47.84626,-54.09684
2021-08-31 23:19:01+00:00,245.8398,15.2,12.81,47.84626,-54.09684
2021-08-31 23:29:01+00:00,245.1879,15.2,12.81,47.84626,-54.09684
2021-08-31 23:39:01+00:00,245.9448,15.2,12.81,47.84626,-54.09684
2021-08-31 23:49:01+00:00,248.6714,15.2,12.81,47.84626,-54.09684
2021-08-31 23:59:01+00:00,246.8014,15.2,12.81,47.84626,-54.09684
